Flag for Germany Weather past 2 weeks in Bergheim, North Rhine-Westphalia, Germany

Now
59 °F

Partly sunny.


Feels Like: 58 °F
Forecast: 54 / 67 °F
Wind: 7 mph from Northwest

Location: Noervenich

Current Time: Jul 29, 2015 at 4:41:56 PM

Latest Report: Jul 29, 2015 at 3:20 PM


Visibility: N/A

Pressure: 29.80 "Hg

Humidity: 77%

Dew point: 52 °F

Location of BergheimLocation

Historic Weather in Bergheim — Graph

°F

Bergheim temperature yesterday

Maximum temperature yesterday: 64 °F (at 1:20 PM)
Minimum temperature yesterday: 55 °F (at 2:20 AM)
Average temperature yesterday: 60 °F

Past Weeks' High & Low Weather Summary

 TemperatureHumidityPressure
High93 °F (Jul 17, 3:20 PM)100% (Jul 19, 4:20 AM)30.12 "Hg (Jul 19, 4:20 AM)
Low50 °F (Jul 26, 3:20 AM)23% (Jul 17, 3:20 PM)29.53 "Hg (Jul 25, 7:20 AM)
Average67 °F71%29.90 "Hg
* Reported Jul 14 3:20 PM — Jul 29 3:20 PM, Bergheim, Weather by CustomWeather, © 2015

Note: Actual official high and low records may vary slightly from our data, if they occured in-between our weather recording intervals... More about our weather records

Advertising

Bergheim weather history for previous 24 hours

 ConditionsComfort  
Time TempWeatherWind HumidityBarometerVisibility
3:20 PM
Wed, Jul 29
59 °FPartly sunny.7 mph77%29.80 "HgN/A
2:20 PM66 °FPartly sunny.17 mph46%29.77 "HgN/A
1:20 PM64 °FScattered clouds.16 mph43%29.77 "HgN/A
12:20 PM64 °FScattered clouds.15 mph49%29.77 "HgN/A
11:20 AM63 °FScattered clouds.15 mph59%29.77 "HgN/A
10:20 AM59 °FScattered clouds.6 mph72%29.77 "HgN/A
9:20 AM55 °FPartly sunny.7 mph82%29.80 "HgN/A
8:20 AM55 °FPartly sunny.6 mph82%29.77 "HgN/A
7:20 AM54 °FSprinkles. Partly sunny.6 mph82%29.80 "HgN/A
6:20 AM54 °FPartly cloudy.7 mph82%29.80 "HgN/A
5:20 AM54 °FPassing clouds.7 mph82%29.80 "HgN/A
4:20 AM54 °FPassing clouds.8 mph82%29.80 "HgN/A
3:20 AM54 °FCool.8 mph77%29.80 "HgN/A
2:20 AM55 °FPassing clouds.8 mph77%29.80 "HgN/A
1:20 AM55 °FCool.6 mph72%29.80 "HgN/A
12:20 AM55 °FPassing clouds.6 mph72%29.80 "HgN/A
11:20 PM
Tue, Jul 28
57 °FPassing clouds.7 mph67%29.80 "HgN/A
10:20 PM57 °FPassing clouds.7 mph67%29.80 "HgN/A
9:20 PM61 °FBroken clouds.8 mph59%29.77 "HgN/A
8:20 PM63 °FBroken clouds.10 mph59%29.77 "HgN/A
7:20 PM63 °FBroken clouds.13 mph56%29.77 "HgN/A
6:20 PM64 °FPartly sunny.14 mph52%29.77 "HgN/A
5:20 PM64 °FPartly sunny.16 mph52%29.74 "HgN/A
4:20 PM63 °FBroken clouds.5 mph64%29.74 "HgN/A
Weather by CustomWeather, © 2015

See weather overviewHow to use our weather pages